Regional Weather Roundup
Issued by NWS

Home | Current Version | Previous Version | Graphics & Text | Print | Product List | Glossary On
Versions: 1 2 3 4 5 6 7 8 9 10 11 12 13 14 15 16 17 18 19 20 21 22 23 24 25 26 27 28 29 30 31 32 33 34 35 36 37 38 39 40 41 42 43 44 45 46 47 48 49 50
000
ASUS43 KDMX 050807
RWRIA

WEATHER ROUNDUP FOR IOWA
NATIONAL WEATHER SERVICE DES MOINES IA
300 AM CDT SAT SEP 05 2015

NOTE: "FAIR" INDICATES FEW OR NO CLOUDS BELOW 12,000 FEET WITH NO
SIGNIFICANT WEATHER AND/OR OBSTRUCTIONS TO VISIBILITY.

* - THESE STATIONS ARE NOT NWS STATIONS...THUS NOT UNDER NWS
QUALITY CONTROL.  THEY ALSO DO NOT REPORT WEATHER SUCH
AS PRECIPITATION OR FOG.

IAZ001>003-012>014-020>022-031>034-043>046-050900-
   NORTHWEST IOWA

CITY           SKY/WX    TMP DP  RH WIND       PRES   REMARKS
CARROLL *      CLEAR     70  70 100 SE5       29.96S
CHEROKEE *     PTCLDY    73  70  88 S7        29.92S
DENISON *      CLEAR     75  68  78 S15G21    29.92S
LE MARS *      CLEAR     75  70  83 S9        29.89S
ORANGE CITY *  CLEAR     73  70  88 S8        29.90S
SHELDON *      CLOUDY    73  70  88 S10       29.89F
SIOUX CITY     PTCLDY    74  68  81 SE13      29.87F
SPENCER        MOCLDY    75  68  78 S9        29.93S
STORM LAKE *   MOCLDY    72  70  94 S9        29.95S
$$

IAZ055>058-069>071-079>083-090>094-050900-
   SOUTHWEST IOWA

CITY           SKY/WX    TMP DP  RH WIND       PRES   REMARKS
ATLANTIC *     CLEAR     72  68  88 S6        29.96S
AUDUBON *      CLEAR     70  66  88 CALM      29.98S
CLARINDA *     CLEAR     72  70  94 S5        29.98S
COUNCIL BLFS *   N/A     72  70  94 SE10      29.94S
CRESTON *      CLEAR     72  68  88 S6        30.00S
LAMONI         CLEAR     74  68  81 S5        30.00S
RED OAK *      CLEAR     73  70  88 S6        29.96R
SHENANDOAH *   CLEAR     73  70  88 S6G12     29.95S
$$

IAZ047>049-059>061-072>074-084-050900-
   CENTRAL IOWA

CITY           SKY/WX    TMP DP  RH WIND       PRES   REMARKS
AMES           MOCLDY    72  70  93 S6        29.98S
ANKENY *       CLEAR     72  72 100 CALM      29.98S
CHARITON *     CLOUDY    73  70  88 S6        30.01R
DES MOINES     MOCLDY    76  68  76 S8        29.98S
GRINNELL*      MOCLDY    73  68  83 S6        30.01S
KNOXVILLE *    CLEAR     73  68  83 CALM      29.99S
MARSHALLTOWN   PTCLDY    75  69  81 S8        29.99R
PELLA *        PTCLDY    73  72  94 S5        30.01S
PERRY *          N/A     73  70  88 S6        29.98S
$$

IAZ004>006-015-016-023>025-035-036-050900-
   NORTH CENTRAL IOWA

CITY           SKY/WX    TMP DP  RH WIND       PRES   REMARKS
ALGONA *       CLEAR     73  72  94 SE8       29.96S
CLARION *      CLEAR     73  70  88 SE8       29.97S
ESTHERVILLE    PTCLDY    73  70  90 S12       29.93F
FORT DODGE *   PTCLDY    75  68  78 S7        29.97S
MASON CITY     MOCLDY    74  71  91 S8        30.00S
FOREST CITY *  CLEAR     73  72  94 S7        29.98S
IOWA FALLS *     N/A     72  70  94 SE5       30.01R
$$

IAZ007>011-017>019-026>030-037>042-050>054-066-050900-
   NORTHEAST IOWA

CITY           SKY/WX    TMP DP  RH WIND       PRES   REMARKS
CEDAR RAPIDS   CLOUDY    75  72  90 SE3       30.00F
CHARLES CITY * CLOUDY    75  73  94 SE7       30.01R
CLINTON *      PTCLDY    72  70  94 E6        30.05R
DECORAH *      CLEAR     75  70  83 SE6       30.01S
DUBUQUE        CLOUDY    75  72  90 CALM      30.05R
MONTICELLO *   CLEAR     73  72  94 SE3       30.01S
OELWEIN *        N/A    N/A N/A N/A MISG        N/A
WATERLOO       PTCLDY    72  70  93 E5        29.99R
$$

IAZ064-065-067-068-078-050900-
   EAST CENTRAL IOWA

CITY           SKY/WX    TMP DP  RH WIND       PRES   REMARKS
DAVENPORT      PTCLDY    74  69  85 S5        30.02S
IOWA CITY      CLOUDY    74  71  91 SE3       30.01F
MT. PLEASANT * PTCLDY    75  68  78 S3        30.02S
MUSCATINE *    CLEAR     73  70  88 CALM      30.01F
QUAD CITIES    PTCLDY    76  68  76 CALM      30.01S
$$

IAZ062-063-075>077-085>089-095>099-050900-
   SOUTHEAST IOWA

CITY           SKY/WX    TMP DP  RH WIND       PRES   REMARKS
BURLINGTON     CLEAR     73  70  90 S5        30.02S
FAIRFIELD *    CLOUDY    75  68  78 S6        30.01S
FORT MADISON * CLEAR     73  70  88 S6        30.03S
KEOKUK *       CLEAR     77  70  78 S5        30.01S
OSKALOOSA *      N/A     70  68  94 S3        30.01S
CENTERVILLE *  CLEAR     72  68  88 S5        30.03S
OTTUMWA        PTCLDY    73  69  87 S7        29.99S
WASHINGTON *     N/A    N/A N/A N/A MISG        N/A
$$

ABBREVIATIONS USED IN REMARKS
   TC - TEMPERATURES IN CELSIUS
  WCI - WIND CHILL INDEX
   HX - HEAT INDEX
  VSB - VISIBILITY
$$




USA.gov is the U.S. government's official web portal to all federal, state and local government web resources and services.